TimeMDT,TemperatureF,Dew PointF,Humidity,Sea Level PressureIn,VisibilityMPH,Wind Direction,Wind SpeedMPH,Gust SpeedMPH,PrecipitationIn,Events,Conditions,WindDirDegrees,DateUTC
12:15 AM,70.2,60.3,71,30.07,10.0,NE,11.5,-,N/A,,Clear,50,2013-08-22 06:15:00
12:35 AM,69.8,59.9,71,30.07,10.0,East,9.2,-,N/A,,Clear,80,2013-08-22 06:35:00
12:55 AM,69.8,59.9,71,30.07,10.0,NE,8.1,-,N/A,,Clear,50,2013-08-22 06:55:00
1:15 AM,68.2,59.9,75,30.06,10.0,NE,5.8,-,N/A,,Clear,40,2013-08-22 07:15:00
1:35 AM,67.8,60.3,77,30.06,10.0,ENE,4.6,-,N/A,,Clear,70,2013-08-22 07:35:00
1:55 AM,68.0,60.4,77,30.07,10.0,NNE,4.6,-,N/A,,Clear,30,2013-08-22 07:55:00
2:15 AM,68.0,61.2,79,30.07,10.0,NE,5.8,-,N/A,,Clear,50,2013-08-22 08:15:00
2:35 AM,67.8,61.3,80,30.07,10.0,ENE,5.8,-,N/A,,Clear,60,2013-08-22 08:35:00
2:55 AM,68.0,61.7,80,30.09,10.0,North,8.1,-,N/A,,Clear,360,2013-08-22 08:55:00
3:15 AM,67.5,61.7,82,30.09,10.0,NNE,4.6,-,N/A,,Clear,30,2013-08-22 09:15:00
3:35 AM,66.2,61.7,85,30.08,10.0,North,3.5,-,N/A,,Clear,360,2013-08-22 09:35:00
3:55 AM,65.1,61.3,88,30.09,10.0,NNE,3.5,-,N/A,,Clear,20,2013-08-22 09:55:00
4:15 AM,64.4,61.5,90,30.09,10.0,Calm,Calm,-,N/A,,Clear,0,2013-08-22 10:15:00
4:35 AM,64.9,61.7,89,30.09,10.0,NNE,3.5,-,N/A,,Clear,20,2013-08-22 10:35:00
4:55 AM,66.4,62.6,88,30.09,10.0,NE,8.1,-,N/A,,Clear,40,2013-08-22 10:55:00
5:15 AM,66.6,62.8,88,30.09,10.0,NE,8.1,-,N/A,,Clear,40,2013-08-22 11:15:00
5:35 AM,66.4,62.6,88,30.10,10.0,NE,8.1,-,N/A,,Clear,40,2013-08-22 11:35:00
5:55 AM,66.6,63.0,88,30.11,10.0,ENE,9.2,-,N/A,,Mostly Cloudy,60,2013-08-22 11:55:00
6:15 AM,67.5,63.5,87,30.12,10.0,ENE,8.1,-,N/A,,Overcast,60,2013-08-22 12:15:00
6:35 AM,67.8,63.5,86,30.13,10.0,ENE,11.5,-,N/A,,Overcast,60,2013-08-22 12:35:00
6:55 AM,68.0,63.3,85,30.14,10.0,ENE,10.4,-,N/A,,Overcast,60,2013-08-22 12:55:00
7:15 AM,68.2,63.3,84,30.14,10.0,NE,6.9,-,N/A,,Overcast,50,2013-08-22 13:15:00
7:35 AM,68.7,63.5,83,30.15,10.0,NE,8.1,-,N/A,,Overcast,50,2013-08-22 13:35:00
7:55 AM,68.9,63.3,82,30.15,10.0,NE,6.9,-,N/A,,Overcast,50,2013-08-22 13:55:00
8:15 AM,69.1,63.5,82,30.15,10.0,NNE,8.1,-,N/A,,Overcast,30,2013-08-22 14:15:00
8:35 AM,68.5,62.8,82,30.16,10.0,NNE,11.5,-,N/A,,Overcast,30,2013-08-22 14:35:00
8:55 AM,68.0,62.8,83,30.16,10.0,North,9.2,-,N/A,,Overcast,10,2013-08-22 14:55:00
9:15 AM,68.4,62.8,82,30.16,10.0,North,10.4,-,N/A,,Overcast,10,2013-08-22 15:15:00
9:35 AM,68.9,62.8,81,30.16,10.0,North,9.2,-,N/A,,Overcast,360,2013-08-22 15:35:00
9:55 AM,69.8,62.6,78,30.16,10.0,North,8.1,-,N/A,,Overcast,10,2013-08-22 15:55:00
10:15 AM,71.6,62.4,73,30.16,10.0,North,8.1,-,N/A,,Mostly Cloudy,360,2013-08-22 16:15:00
10:35 AM,74.1,62.6,67,30.15,10.0,NNE,9.2,-,N/A,,Scattered Clouds,20,2013-08-22 16:35:00
10:55 AM,75.9,62.1,62,30.15,10.0,North,10.4,-,N/A,,Clear,360,2013-08-22 16:55:00
11:15 AM,77.9,62.4,59,30.15,10.0,NNE,10.4,-,N/A,,Clear,20,2013-08-22 17:15:00
11:35 AM,79.5,61.7,54,30.15,10.0,North,6.9,16.1,N/A,,Clear,360,2013-08-22 17:35:00
11:55 AM,80.4,61.7,53,30.15,10.0,NNE,11.5,-,N/A,,Clear,20,2013-08-22 17:55:00
12:15 PM,80.6,61.7,52,30.14,10.0,NNE,9.2,16.1,N/A,,Clear,20,2013-08-22 18:15:00
12:35 PM,82.4,61.0,48,30.13,10.0,North,13.8,-,N/A,,Clear,10,2013-08-22 18:35:00
12:55 PM,83.3,61.2,47,30.13,10.0,NNE,12.7,16.1,N/A,,Clear,20,2013-08-22 18:55:00
1:15 PM,83.7,61.0,46,30.13,10.0,North,10.4,-,N/A,,Clear,10,2013-08-22 19:15:00
1:35 PM,83.5,61.2,47,30.13,10.0,NE,13.8,-,N/A,,Clear,40,2013-08-22 19:35:00
1:55 PM,84.4,61.5,46,30.13,10.0,ENE,10.4,-,N/A,,Clear,60,2013-08-22 19:55:00
2:15 PM,84.7,61.0,45,30.12,10.0,NE,11.5,18.4,N/A,,Clear,50,2013-08-22 20:15:00
2:35 PM,85.3,61.5,45,30.12,10.0,NE,13.8,17.3,N/A,,Clear,50,2013-08-22 20:35:00
2:55 PM,85.5,61.0,44,30.11,10.0,ENE,11.5,20.7,N/A,,Scattered Clouds,60,2013-08-22 20:55:00
3:15 PM,84.4,61.9,47,30.11,10.0,East,11.5,18.4,N/A,,Scattered Clouds,80,2013-08-22 21:15:00
3:35 PM,83.3,62.1,49,30.11,10.0,East,11.5,-,N/A,,Scattered Clouds,90,2013-08-22 21:35:00
3:55 PM,83.8,61.7,47,30.11,10.0,East,12.7,16.1,N/A,,Scattered Clouds,100,2013-08-22 21:55:00
4:15 PM,83.7,61.7,47,30.10,10.0,East,15.0,20.7,N/A,,Mostly Cloudy,90,2013-08-22 22:15:00
4:35 PM,83.5,62.8,50,30.10,10.0,East,11.5,18.4,N/A,,Scattered Clouds,100,2013-08-22 22:35:00
4:55 PM,82.8,63.0,51,30.09,10.0,ESE,12.7,-,N/A,,Scattered Clouds,110,2013-08-22 22:55:00
5:15 PM,82.4,62.6,51,30.09,10.0,ESE,12.7,-,N/A,,Scattered Clouds,110,2013-08-22 23:15:00
5:35 PM,80.8,63.3,55,30.09,10.0,ESE,10.4,-,N/A,,Scattered Clouds,110,2013-08-22 23:35:00
5:55 PM,81.0,63.5,55,30.09,10.0,East,15.0,18.4,N/A,,Mostly Cloudy,90,2013-08-22 23:55:00
6:15 PM,79.5,63.9,59,30.09,10.0,East,9.2,-,N/A,,Scattered Clouds,80,2013-08-23 00:15:00
6:35 PM,78.8,64.4,61,30.10,10.0,East,11.5,17.3,N/A,,Clear,90,2013-08-23 00:35:00
6:55 PM,77.9,64.4,63,30.10,10.0,East,10.4,-,N/A,,Clear,90,2013-08-23 00:55:00
7:15 PM,77.0,64.4,65,30.10,10.0,East,11.5,-,N/A,,Clear,90,2013-08-23 01:15:00
7:35 PM,75.7,64.8,69,30.11,10.0,East,13.8,17.3,N/A,,Clear,90,2013-08-23 01:35:00
7:55 PM,75.2,65.3,71,30.11,10.0,East,8.1,-,N/A,,Clear,90,2013-08-23 01:55:00
8:15 PM,74.3,65.3,73,30.11,10.0,East,15.0,-,N/A,,Clear,80,2013-08-23 02:15:00
8:35 PM,73.8,65.3,75,30.12,10.0,East,11.5,-,N/A,,Clear,90,2013-08-23 02:35:00
8:55 PM,73.2,65.3,76,30.12,10.0,East,9.2,-,N/A,,Clear,90,2013-08-23 02:55:00
9:15 PM,72.7,65.7,79,30.12,10.0,East,9.2,-,N/A,,Clear,80,2013-08-23 03:15:00
9:35 PM,72.1,65.5,79,30.12,10.0,East,9.2,-,N/A,,Clear,90,2013-08-23 03:35:00
9:55 PM,71.6,65.5,81,30.12,10.0,East,8.1,-,N/A,,Clear,90,2013-08-23 03:55:00
10:15 PM,71.1,65.5,82,30.12,10.0,East,8.1,-,N/A,,Clear,90,2013-08-23 04:15:00
10:35 PM,70.3,65.3,84,30.13,10.0,East,6.9,-,N/A,,Clear,80,2013-08-23 04:35:00
10:55 PM,70.0,65.3,85,30.14,10.0,East,5.8,-,N/A,,Clear,90,2013-08-23 04:55:00
11:15 PM,68.7,64.9,88,30.13,10.0,Calm,Calm,-,N/A,,Clear,0,2013-08-23 05:15:00
11:35 PM,67.6,64.8,90,30.14,7.0,Calm,Calm,-,N/A,,Clear,0,2013-08-23 05:35:00
11:55 PM,67.1,64.4,91,30.14,7.0,East,3.5,-,N/A,,Clear,90,2013-08-23 05:55:00